Weather History for Volk, WI

Change the Weather History Date:

Monday, November 19, 2012

  Actual Average Record
Temperature  
Mean Temperature 44 °F -  
Max Temperature 48 °F 38 °F 53 °F (1999)
Min Temperature 39 °F 25 °F 13 °F (2013)
Degree Days  
Heating Degree Days 22    
Moisture  
Dew Point 37 °F    
Average Humidity 78    
Maximum Humidity 93    
Minimum Humidity 64    
Precipitation  
Precipitation 0.03 in - - ()
Sea Level Pressure  
Sea Level Pressure 30.14 in    
Wind  
Wind Speed 4 mph (ESE)    
Max Wind Speed 8 mph    
Max Gust Speed -    
Visibility 9 miles    
Events Rain    
Averages and records for this station are not official NWS values.
T = Trace of Precipitation, MM = Missing Value Source: NWS Daily Summary

Daily Weather History Graph

Daily Weather History Graph

Search for Another Location

Airport:

Trip Planner

Search our weather history database for the weather conditions in past years. The results will help you decide how hot, cold, wet, or windy it might be!

Date:

Astronomy

Nov. 19, 2012 Rise Set
Actual Time 7:01 AM CST 4:31 PM CST
Civil Twilight 6:30 AM CST 5:02 PM CST
Nautical Twilight 5:54 AM CST 5:37 PM CST
Astronomical Twilight 5:20 AM CST 6:11 PM CST
Moon 11:59 AM CST (11/19) 11:03 PM CST (11/19)
Length of Visible Light 10h 32m
Length of Day
9h 29m
Waxing Crescent, 41% of the Moon is Illuminated
Nov 19
Waxing Crescent
Nov 20
First Quarter
Nov 28
Full
Dec 6
Last Quarter
Dec 13
New

Hourly Weather History & Observations

Time (CST) Temp. Windchill Dew Point Humidity Pressure Visibility Wind Dir Wind Speed Gust Speed Precip Events Conditions
12:55 AM 41.5 °F 39.6 °F 32.4 °F 70% 30.24 in 10.0 mi East 3.5 mph - N/A   Mostly Cloudy
1:55 AM 43.0 °F 40.3 °F 32.7 °F 67% 30.22 in 10.0 mi ENE 4.6 mph - N/A   Mostly Cloudy
2:55 AM 41.7 °F 38.8 °F 33.6 °F 73% 30.21 in 10.0 mi SSE 4.6 mph - N/A   Mostly Cloudy
3:55 AM 44.2 °F 42.7 °F 32.9 °F 64% 30.19 in 10.0 mi Variable 3.5 mph - N/A   Mostly Cloudy
4:55 AM 40.6 °F 36.7 °F 33.4 °F 75% 30.19 in 10.0 mi East 5.8 mph - N/A   Mostly Cloudy
5:55 AM 39.6 °F 37.4 °F 34.0 °F 80% 30.20 in 10.0 mi ESE 3.5 mph - N/A   Partly Cloudy
6:55 AM 39.2 °F - 33.8 °F 81% 30.19 in 10.0 mi Calm Calm - N/A   Overcast
7:55 AM 41.0 °F 36.4 °F 35.6 °F 81% 30.19 in 10.0 mi East 6.9 mph - N/A   Overcast
8:55 AM 44.6 °F 41.4 °F 35.6 °F 71% 30.19 in 10.0 mi ESE 5.8 mph - N/A   Overcast
9:39 AM 44.6 °F 40.2 °F 35.6 °F 71% 30.18 in 7.0 mi East 8.1 mph - N/A Rain Light Rain Showers
10:18 AM 44.6 °F 40.7 °F 37.4 °F 76% 30.16 in 5.0 mi ESE 6.9 mph - N/A Rain Light Rain
10:55 AM 44.6 °F 40.7 °F 39.2 °F 81% 30.17 in 7.0 mi South 6.9 mph - N/A   Overcast
11:55 AM 46.4 °F 44.3 °F 39.2 °F 76% 30.15 in 10.0 mi SSE 4.6 mph - N/A   Overcast
12:55 PM 46.4 °F 42.9 °F 39.2 °F 76% 30.13 in 7.0 mi SE 6.9 mph - N/A   Overcast
1:55 PM 48.2 °F - 41.0 °F 76% 30.11 in 7.0 mi East 4.6 mph - N/A   Overcast
2:55 PM 48.2 °F - 41.0 °F 76% 30.09 in 7.0 mi East 6.9 mph - N/A   Overcast
3:55 PM 48.2 °F - 39.2 °F 71% 30.09 in 10.0 mi East 3.5 mph - N/A   Overcast
4:55 PM 46.4 °F - 39.2 °F 76% 30.09 in 10.0 mi Calm Calm - N/A   Overcast
5:55 PM 46.4 °F 45.2 °F 39.2 °F 76% 30.11 in 10.0 mi East 3.5 mph - N/A   Overcast
6:45 PM 44.6 °F 43.1 °F 39.2 °F 81% 30.07 in 10.0 mi ESE 3.5 mph - N/A   Overcast
6:55 PM 44.6 °F 42.2 °F 39.2 °F 81% 30.10 in 10.0 mi ESE 4.6 mph - N/A   Overcast
7:55 PM 42.8 °F - 39.2 °F 87% 30.10 in 10.0 mi Calm Calm - N/A   Overcast
8:55 PM 41.0 °F - 37.4 °F 87% 30.09 in 10.0 mi Calm Calm - N/A   Overcast
9:55 PM 39.2 °F - 37.4 °F 93% 30.09 in 10.0 mi Calm Calm - N/A   Overcast
10:55 PM 41.0 °F - 39.2 °F 93% 30.08 in 10.0 mi Calm Calm - N/A   Overcast
11:55 PM 41.0 °F 39.0 °F 39.2 °F 93% 30.08 in 10.0 mi ESE 3.5 mph - N/A   Overcast